Location: Newark
(48.3453°N, 0.5589°E)
Time: 11:24:31
(UTC+00:00)

A-11 Canister half - Pass Details

Date: 12 December 2019
Orbit: 1516 x 1683 km, 47.2° (Epoch: 19 January)

Event Time Altitude Azimuth Distance (km) Brightness Sun altitude
Rises 11:18:20 0° 222° (SW) 4,717 12.2 18.2°
Reaches altitude 10° 11:21:28 10° 217° (SW) 3,756 11.9 18.3°
Maximum altitude 11:30:31 50° 146° (SE) 1,977 10.6 18.4°
Drops below altitude 10° 11:39:54 10° 76° (ENE) 3,893 11.1 18.5°
Sets 11:43:12 0° 71° (ENE) 4,901 11.5 18.6°
